Saint Bonnet de Bellac- Haute Vienne - France
Donnes mto: mercredi, 09/05/2012
Date Horaire Temp. E. Hum. E. P.atmo. Pluie Vent Direction Direction Ensoleilleme Solaire P. de rose Temp au vent Rafales
09/05/2012 00:00 15,1 C 92 % 1012,9 hPa 0,0 mm 4,7 km/h (1 Bft) SO 225 0 min 0 W/m 13,8 C 15,1 C 7,9 km/h (2 Bft)
09/05/2012 00:10 15,1 C 92 % 1013,0 hPa 0,0 mm 5,4 km/h (2 Bft) SO 225 0 min 0 W/m 13,8 C 15,1 C 6,5 km/h (2 Bft)
09/05/2012 00:20 15,1 C 92 % 1013,0 hPa 0,0 mm 5,8 km/h (2 Bft) SO 225 0 min 0 W/m 13,8 C 15,1 C 11,9 km/h (2 Bft)
09/05/2012 00:30 15,1 C 92 % 1013,1 hPa 0,0 mm 11,5 km/h (2 Bft) S-SO 202 0 min 0 W/m 13,8 C 15,1 C 12,2 km/h (2 Bft)
09/05/2012 00:40 15,2 C 91 % 1013,0 hPa 0,0 mm 6,1 km/h (2 Bft) S-SO 202 0 min 0 W/m 13,7 C 15,2 C 6,1 km/h (2 Bft)
09/05/2012 00:50 15,2 C 91 % 1012,9 hPa 0,0 mm 6,5 km/h (2 Bft) S-SO 202 0 min 0 W/m 13,7 C 15,2 C 10,1 km/h (2 Bft)
09/05/2012 01:00 15,2 C 91 % 1013,0 hPa 0,0 mm 2,5 km/h (1 Bft) SO 225 0 min 0 W/m 13,7 C 15,2 C 6,8 km/h (2 Bft)
09/05/2012 01:10 15,1 C 91 % 1013,0 hPa 0,0 mm 6,8 km/h (2 Bft) SO 225 0 min 0 W/m 13,6 C 15,1 C 9,4 km/h (2 Bft)
09/05/2012 01:20 15,2 C 91 % 1012,9 hPa 0,0 mm 7,9 km/h (2 Bft) O-SO 247 0 min 0 W/m 13,7 C 15,2 C 8,6 km/h (2 Bft)
09/05/2012 01:30 15,3 C 92 % 1012,8 hPa 0,0 mm 9,0 km/h (2 Bft) S-SO 202 0 min 0 W/m 14,0 C 15,3 C 14,0 km/h (3 Bft)
09/05/2012 01:40 15,2 C 91 % 1012,9 hPa 0,0 mm 6,5 km/h (2 Bft) SO 225 0 min 0 W/m 13,7 C 15,2 C 6,5 km/h (2 Bft)
09/05/2012 01:50 15,2 C 91 % 1012,8 hPa 0,0 mm 6,1 km/h (2 Bft) S-SO 202 0 min 0 W/m 13,7 C 15,2 C 7,9 km/h (2 Bft)
09/05/2012 02:00 15,2 C 91 % 1012,8 hPa 0,0 mm 8,3 km/h (2 Bft) SO 225 0 min 0 W/m 13,7 C 15,2 C 10,8 km/h (2 Bft)
09/05/2012 02:10 15,1 C 91 % 1012,7 hPa 0,0 mm 5,4 km/h (2 Bft) S 180 0 min 0 W/m 13,6 C 15,1 C 5,4 km/h (2 Bft)
09/05/2012 02:20 15,0 C 91 % 1012,8 hPa 0,0 mm 6,1 km/h (2 Bft) SO 225 0 min 0 W/m 13,5 C 15,0 C 12,6 km/h (3 Bft)
09/05/2012 02:30 14,9 C 91 % 1012,8 hPa 0,0 mm 4,3 km/h (1 Bft) S-SO 202 0 min 0 W/m 13,4 C 14,9 C 7,2 km/h (2 Bft)
09/05/2012 02:40 14,9 C 92 % 1012,9 hPa 0,0 mm 5,8 km/h (2 Bft) S-SO 202 0 min 0 W/m 13,6 C 14,9 C 10,1 km/h (2 Bft)
09/05/2012 02:50 14,9 C 92 % 1013,0 hPa 0,0 mm 5,4 km/h (2 Bft) SO 225 0 min 0 W/m 13,6 C 14,9 C 11,2 km/h (2 Bft)
09/05/2012 03:02 14,9 C 92 % 1013,2 hPa 0,0 mm 7,2 km/h (2 Bft) S-SO 202 0 min 0 W/m 13,6 C 14,9 C 11,2 km/h (2 Bft)
09/05/2012 03:10 14,9 C 92 % 1013,1 hPa 0,0 mm 8,6 km/h (2 Bft) S-SO 202 0 min 0 W/m 13,6 C 14,9 C 12,6 km/h (3 Bft)
09/05/2012 03:20 14,9 C 92 % 1012,9 hPa 0,0 mm 5,4 km/h (2 Bft) SO 225 0 min 0 W/m 13,6 C 14,9 C 5,4 km/h (2 Bft)
09/05/2012 03:30 14,8 C 92 % 1012,9 hPa 0,0 mm 5,8 km/h (2 Bft) S-SO 202 0 min 0 W/m 13,5 C 14,8 C 5,8 km/h (2 Bft)
09/05/2012 03:40 14,8 C 92 % 1013,0 hPa 0,0 mm 6,1 km/h (2 Bft) S-SO 202 0 min 0 W/m 13,5 C 14,8 C 8,3 km/h (2 Bft)
09/05/2012 03:50 14,8 C 93 % 1012,9 hPa 0,0 mm 6,8 km/h (2 Bft) S 180 0 min 0 W/m 13,7 C 14,8 C 8,3 km/h (2 Bft)
09/05/2012 04:00 14,8 C 93 % 1013,0 hPa 0,0 mm 7,9 km/h (2 Bft) S-SO 202 0 min 0 W/m 13,7 C 14,8 C 12,2 km/h (2 Bft)
09/05/2012 04:10 14,8 C 93 % 1012,9 hPa 0,0 mm 6,1 km/h (2 Bft) S 180 0 min 0 W/m 13,7 C 14,8 C 6,5 km/h (2 Bft)
09/05/2012 04:20 14,8 C 93 % 1013,0 hPa 0,0 mm 7,6 km/h (2 Bft) S-SO 202 0 min 0 W/m 13,7 C 14,8 C 7,6 km/h (2 Bft)
09/05/2012 04:30 14,8 C 93 % 1013,0 hPa 0,0 mm 4,0 km/h (1 Bft) S-SO 202 0 min 0 W/m 13,7 C 14,8 C 4,0 km/h (1 Bft)
09/05/2012 04:40 14,8 C 93 % 1013,0 hPa 0,0 mm 4,7 km/h (1 Bft) S-SO 202 0 min 0 W/m 13,7 C 14,8 C 7,9 km/h (2 Bft)
09/05/2012 04:50 14,8 C 93 % 1013,0 hPa 0,0 mm 7,6 km/h (2 Bft) SO 225 0 min 0 W/m 13,7 C 14,8 C 7,9 km/h (2 Bft)
09/05/2012 05:00 14,9 C 92 % 1013,1 hPa 0,0 mm 5,4 km/h (2 Bft) SO 225 0 min 0 W/m 13,6 C 14,9 C 8,3 km/h (2 Bft)
09/05/2012 05:10 14,9 C 92 % 1013,1 hPa 0,0 mm 5,0 km/h (1 Bft) SO 225 0 min 0 W/m 13,6 C 14,9 C 9,7 km/h (2 Bft)
09/05/2012 05:20 15,1 C 92 % 1013,1 hPa 0,0 mm 6,1 km/h (2 Bft) S-SO 202 0 min 0 W/m 13,8 C 15,1 C 6,1 km/h (2 Bft)
09/05/2012 05:30 15,1 C 92 % 1013,2 hPa 0,0 mm 10,8 km/h (2 Bft) SO 225 0 min 0 W/m 13,8 C 15,1 C 10,8 km/h (2 Bft)
09/05/2012 05:40 15,1 C 92 % 1013,4 hPa 0,0 mm 6,8 km/h (2 Bft) S-SO 202 0 min 0 W/m 13,8 C 15,1 C 6,8 km/h (2 Bft)
09/05/2012 05:50 15,1 C 93 % 1013,3 hPa 0,1 mm 5,0 km/h (1 Bft) SO 225 0 min 0 W/m 14,0 C 15,1 C 10,1 km/h (2 Bft)
09/05/2012 06:00 15,1 C 93 % 1013,4 hPa 0,0 mm 6,5 km/h (2 Bft) S-SO 202 0 min 0 W/m 14,0 C 15,1 C 9,4 km/h (2 Bft)
09/05/2012 06:10 15,1 C 93 % 1013,4 hPa 0,1 mm 4,7 km/h (1 Bft) S-SO 202 0 min 0 W/m 14,0 C 15,1 C 7,9 km/h (2 Bft)
09/05/2012 06:20 15,0 C 94 % 1013,5 hPa 0,3 mm 6,8 km/h (2 Bft) SO 225 0 min 0 W/m 14,0 C 15,0 C 8,3 km/h (2 Bft)
09/05/2012 06:30 14,9 C 94 % 1013,6 hPa 0,3 mm 7,6 km/h (2 Bft) SO 225 0 min 0 W/m 13,9 C 14,9 C 11,9 km/h (2 Bft)
09/05/2012 06:40 14,9 C 94 % 1013,7 hPa 0,3 mm 4,3 km/h (1 Bft) O-SO 247 0 min 0 W/m 13,9 C 14,9 C 10,4 km/h (2 Bft)
09/05/2012 06:50 14,9 C 94 % 1013,6 hPa 0,3 mm 6,5 km/h (2 Bft) S-SO 202 2 min 0 W/m 13,9 C 14,9 C 10,8 km/h (2 Bft)
09/05/2012 07:00 14,9 C 94 % 1013,9 hPa 0,2 mm 2,9 km/h (1 Bft) S-SO 202 2 min 0 W/m 13,9 C 14,9 C 4,3 km/h (1 Bft)
09/05/2012 07:10 14,8 C 94 % 1014,0 hPa 0,6 mm 5,0 km/h (1 Bft) S-SO 202 2 min 0 W/m 13,8 C 14,8 C 6,8 km/h (2 Bft)
09/05/2012 07:20 14,8 C 94 % 1014,0 hPa 0,3 mm 2,5 km/h (1 Bft) S 180 2 min 0 W/m 13,8 C 14,8 C 6,1 km/h (2 Bft)
09/05/2012 07:30 14,8 C 94 % 1014,0 hPa 0,2 mm 3,2 km/h (1 Bft) S 180 2 min 0 W/m 13,8 C 14,8 C 5,8 km/h (2 Bft)
09/05/2012 07:40 14,8 C 94 % 1014,2 hPa 0,1 mm 3,6 km/h (1 Bft) SO 225 2 min 0 W/m 13,8 C 14,8 C 4,0 km/h (1 Bft)
09/05/2012 07:50 14,8 C 94 % 1014,3 hPa 0,0 mm 2,2 km/h (1 Bft) S-SO 202 2 min 0 W/m 13,8 C 14,8 C 2,2 km/h (1 Bft)
09/05/2012 08:00 14,9 C 95 % 1014,4 hPa 0,0 mm 4,3 km/h (1 Bft) S-SO 202 2 min 0 W/m 14,1 C 14,9 C 7,6 km/h (2 Bft)
09/05/2012 08:10 14,9 C 95 % 1014,3 hPa 0,0 mm 4,0 km/h (1 Bft) SO 225 2 min 0 W/m 14,1 C 14,9 C 6,1 km/h (2 Bft)
09/05/2012 08:20 15,1 C 95 % 1014,4 hPa 0,0 mm 3,2 km/h (1 Bft) SO 225 2 min 0 W/m 14,3 C 15,1 C 4,3 km/h (1 Bft)
09/05/2012 08:30 15,2 C 95 % 1014,5 hPa 0,0 mm 3,6 km/h (1 Bft) SO 225 2 min 0 W/m 14,4 C 15,2 C 4,0 km/h (1 Bft)
09/05/2012 08:40 15,3 C 95 % 1014,5 hPa 0,0 mm 3,2 km/h (1 Bft) S-SO 202 2 min 0 W/m 14,5 C 15,3 C 4,0 km/h (1 Bft)
09/05/2012 08:50 15,3 C 95 % 1014,6 hPa 0,0 mm 3,6 km/h (1 Bft) S-SO 202 2 min 0 W/m 14,5 C 15,3 C 6,5 km/h (2 Bft)
09/05/2012 09:00 15,5 C 95 % 1014,6 hPa 0,0 mm 6,5 km/h (2 Bft) S 180 2 min 0 W/m 14,7 C 15,5 C 8,3 km/h (2 Bft)
09/05/2012 09:10 15,9 C 95 % 1014,7 hPa 0,0 mm 6,8 km/h (2 Bft) S-SO 202 2 min 0 W/m 15,1 C 15,9 C 7,6 km/h (2 Bft)
09/05/2012 09:20 16,1 C 95 % 1014,7 hPa 0,0 mm 6,8 km/h (2 Bft) SO 225 2 min 0 W/m 15,3 C 16,1 C 7,6 km/h (2 Bft)
09/05/2012 09:30 16,3 C 94 % 1015,0 hPa 0,0 mm 5,4 km/h (2 Bft) SO 225 2 min 0 W/m 15,3 C 16,3 C 5,4 km/h (2 Bft)
09/05/2012 09:40 16,3 C 93 % 1015,2 hPa 0,0 mm 4,7 km/h (1 Bft) SO 225 2 min 0 W/m 15,2 C 16,3 C 9,0 km/h (2 Bft)
09/05/2012 09:50 16,3 C 93 % 1015,2 hPa 0,0 mm 2,9 km/h (1 Bft) SO 225 2 min 0 W/m 15,2 C 16,3 C 3,6 km/h (1 Bft)
09/05/2012 10:00 16,1 C 92 % 1015,3 hPa 0,0 mm 1,8 km/h (1 Bft) SO 225 2 min 0 W/m 14,8 C 16,1 C 3,6 km/h (1 Bft)
09/05/2012 10:10 16,1 C 93 % 1015,3 hPa 0,0 mm 6,1 km/h (2 Bft) S-SO 202 2 min 0 W/m 15,0 C 16,1 C 8,3 km/h (2 Bft)
09/05/2012 10:20 16,3 C 93 % 1015,4 hPa 0,0 mm 7,2 km/h (2 Bft) SO 225 2 min 0 W/m 15,2 C 16,3 C 8,6 km/h (2 Bft)
09/05/2012 10:30 16,6 C 92 % 1015,5 hPa 0,0 mm 6,5 km/h (2 Bft) S-SO 202 2 min 0 W/m 15,3 C 16,6 C 8,6 km/h (2 Bft)
09/05/2012 10:40 16,9 C 92 % 1015,6 hPa 0,0 mm 0,7 km/h (0 Bft) S-SO 202 2 min 0 W/m 15,6 C 16,9 C 0,7 km/h (0 Bft)
09/05/2012 10:50 17,2 C 91 % 1015,7 hPa 0,0 mm 3,6 km/h (1 Bft) SO 225 2 min 0 W/m 15,7 C 17,2 C 4,3 km/h (1 Bft)
09/05/2012 11:00 17,3 C 89 % 1015,7 hPa 0,0 mm 3,6 km/h (1 Bft) S-SO 202 2 min 0 W/m 15,5 C 17,3 C 8,3 km/h (2 Bft)
09/05/2012 11:10 17,5 C 90 % 1015,8 hPa 0,0 mm 6,8 km/h (2 Bft) SO 225 2 min 0 W/m 15,8 C 17,5 C 6,8 km/h (2 Bft)
09/05/2012 11:20 18,2 C 89 % 1015,9 hPa 0,0 mm 7,9 km/h (2 Bft) S-SE 157 2 min 0 W/m 16,4 C 18,2 C 7,9 km/h (2 Bft)
09/05/2012 11:30 18,8 C 87 % 1016,2 hPa 0,0 mm 4,3 km/h (1 Bft) S-SO 202 2 min 0 W/m 16,6 C 18,8 C 7,2 km/h (2 Bft)
09/05/2012 11:40 18,8 C 84 % 1016,3 hPa 0,0 mm 7,2 km/h (2 Bft) O-SO 247 2 min 0 W/m 16,0 C 18,8 C 7,2 km/h (2 Bft)
09/05/2012 11:50 18,8 C 84 % 1016,3 hPa 0,0 mm 4,0 km/h (1 Bft) S-SO 202 2 min 0 W/m 16,0 C 18,8 C 4,0 km/h (1 Bft)
09/05/2012 12:00 18,8 C 85 % 1016,3 hPa 0,0 mm 6,5 km/h (2 Bft) S-SO 202 2 min 0 W/m 16,2 C 18,8 C 6,5 km/h (2 Bft)
09/05/2012 12:10 19,2 C 83 % 1016,3 hPa 0,0 mm 7,6 km/h (2 Bft) SO 225 2 min 0 W/m 16,2 C 19,2 C 12,2 km/h (2 Bft)
09/05/2012 12:20 19,7 C 79 % 1016,5 hPa 0,0 mm 6,8 km/h (2 Bft) SO 225 2 min 0 W/m 16,0 C 19,7 C 9,4 km/h (2 Bft)
09/05/2012 12:30 20,2 C 80 % 1016,5 hPa 0,0 mm 4,0 km/h (1 Bft) O-SO 247 2 min 0 W/m 16,6 C 20,2 C 4,3 km/h (1 Bft)
09/05/2012 12:40 20,4 C 76 % 1016,6 hPa 0,0 mm 4,7 km/h (1 Bft) S-SO 202 2 min 0 W/m 16,0 C 20,4 C 7,9 km/h (2 Bft)
09/05/2012 12:50 20,3 C 76 % 1016,7 hPa 0,0 mm 2,9 km/h (1 Bft) SO 225 2 min 0 W/m 15,9 C 20,3 C 5,4 km/h (2 Bft)
09/05/2012 13:00 20,0 C 77 % 1016,7 hPa 0,0 mm 6,5 km/h (2 Bft) O-SO 247 2 min 0 W/m 15,8 C 20,0 C 9,4 km/h (2 Bft)
09/05/2012 13:10 19,8 C 77 % 1016,6 hPa 0,0 mm 3,2 km/h (1 Bft) O-SO 247 2 min 0 W/m 15,6 C 19,8 C 7,6 km/h (2 Bft)
09/05/2012 13:20 19,9 C 78 % 1016,6 hPa 0,0 mm 2,9 km/h (1 Bft) S-SO 202 2 min 0 W/m 15,9 C 19,9 C 4,3 km/h (1 Bft)
09/05/2012 13:30 20,0 C 76 % 1016,5 hPa 0,0 mm 7,2 km/h (2 Bft) O-SO 247 2 min 0 W/m 15,6 C 20,0 C 12,6 km/h (3 Bft)
09/05/2012 13:40 20,2 C 77 % 1016,4 hPa 0,0 mm 5,0 km/h (1 Bft) S-SO 202 2 min 0 W/m 16,0 C 20,2 C 7,9 km/h (2 Bft)
09/05/2012 13:50 20,5 C 77 % 1016,5 hPa 0,0 mm 6,1 km/h (2 Bft) SO 225 2 min 0 W/m 16,3 C 20,5 C 12,2 km/h (2 Bft)
09/05/2012 14:00 20,9 C 75 % 1016,6 hPa 0,0 mm 6,8 km/h (2 Bft) S-SO 202 2 min 0 W/m 16,3 C 20,9 C 6,8 km/h (2 Bft)
09/05/2012 14:10 21,3 C 75 % 1016,4 hPa 0,0 mm 7,9 km/h (2 Bft) S-SE 157 2 min 0 W/m 16,7 C 21,3 C 11,5 km/h (2 Bft)
09/05/2012 14:20 21,8 C 70 % 1016,5 hPa 0,0 mm 9,7 km/h (2 Bft) S-SO 202 2 min 0 W/m 16,1 C 21,8 C 14,4 km/h (3 Bft)
09/05/2012 14:30 21,5 C 70 % 1016,5 hPa 0,0 mm 7,2 km/h (2 Bft) SO 225 2 min 0 W/m 15,8 C 21,5 C 10,1 km/h (2 Bft)
09/05/2012 14:40 21,8 C 71 % 1016,6 hPa 0,0 mm 4,3 km/h (1 Bft) SO 225 2 min 0 W/m 16,3 C 21,8 C 4,3 km/h (1 Bft)
09/05/2012 14:50 21,8 C 71 % 1016,5 hPa 0,0 mm 5,8 km/h (2 Bft) S 180 2 min 0 W/m 16,3 C 21,8 C 9,7 km/h (2 Bft)
09/05/2012 15:00 21,9 C 70 % 1016,4 hPa 0,0 mm 3,6 km/h (1 Bft) SO 225 2 min 0 W/m 16,2 C 21,9 C 7,6 km/h (2 Bft)
09/05/2012 15:10 22,4 C 69 % 1016,4 hPa 0,0 mm 12,6 km/h (3 Bft) S 180 0 min 0 W/m 16,4 C 22,4 C 13,3 km/h (3 Bft)
09/05/2012 15:20 22,6 C 67 % 1016,5 hPa 0,0 mm 7,6 km/h (2 Bft) SO 225 0 min 0 W/m 16,2 C 22,6 C 13,0 km/h (3 Bft)
09/05/2012 15:30 22,6 C 67 % 1016,5 hPa 0,0 mm 9,0 km/h (2 Bft) SO 225 0 min 0 W/m 16,2 C 22,6 C 10,1 km/h (2 Bft)
09/05/2012 15:40 22,8 C 67 % 1016,4 hPa 0,0 mm 6,8 km/h (2 Bft) S-SO 202 0 min 0 W/m 16,3 C 22,8 C 6,8 km/h (2 Bft)
09/05/2012 15:50 23,1 C 67 % 1016,4 hPa 0,0 mm 9,7 km/h (2 Bft) SO 225 0 min 0 W/m 16,6 C 23,1 C 14,4 km/h (3 Bft)
09/05/2012 16:00 23,3 C 66 % 1016,4 hPa 0,0 mm 9,0 km/h (2 Bft) S-SO 202 0 min 0 W/m 16,6 C 23,3 C 9,0 km/h (2 Bft)
09/05/2012 16:10 23,6 C 66 % 1016,4 hPa 0,0 mm 4,3 km/h (1 Bft) SO 225 0 min 0 W/m 16,9 C 23,6 C 6,8 km/h (2 Bft)
09/05/2012 16:20 23,7 C 62 % 1016,3 hPa 0,0 mm 9,7 km/h (2 Bft) S-SO 202 0 min 0 W/m 16,0 C 23,7 C 14,0 km/h (3 Bft)
09/05/2012 16:30 23,8 C 62 % 1016,2 hPa 0,0 mm 9,7 km/h (2 Bft) N 360 0 min 0 W/m 16,1 C 23,8 C 9,7 km/h (2 Bft)
09/05/2012 16:40 23,8 C 62 % 1016,1 hPa 0,0 mm 7,6 km/h (2 Bft) SO 225 0 min 0 W/m 16,1 C 23,8 C 7,6 km/h (2 Bft)
09/05/2012 16:50 23,8 C 60 % 1016,0 hPa 0,0 mm 7,9 km/h (2 Bft) SO 225 0 min 0 W/m 15,6 C 23,8 C 11,5 km/h (2 Bft)
09/05/2012 17:00 23,8 C 60 % 1016,1 hPa 0,0 mm 6,5 km/h (2 Bft) O-SO 247 0 min 0 W/m 15,6 C 23,8 C 11,5 km/h (2 Bft)
09/05/2012 17:10 23,9 C 61 % 1016,2 hPa 0,0 mm 7,9 km/h (2 Bft) O 270 0 min 0 W/m 15,9 C 23,9 C 13,7 km/h (3 Bft)
09/05/2012 17:20 23,9 C 60 % 1016,2 hPa 0,0 mm 5,8 km/h (2 Bft) SO 225 0 min 0 W/m 15,7 C 23,9 C 7,9 km/h (2 Bft)
09/05/2012 17:30 23,4 C 63 % 1016,0 hPa 0,0 mm 2,9 km/h (1 Bft) SO 225 0 min 0 W/m 15,9 C 23,4 C 6,5 km/h (2 Bft)
09/05/2012 17:40 23,5 C 61 % 1015,9 hPa 0,0 mm 3,6 km/h (1 Bft) O-SO 247 0 min 0 W/m 15,5 C 23,5 C 6,1 km/h (2 Bft)
09/05/2012 17:50 23,7 C 61 % 1016,0 hPa 0,0 mm 6,1 km/h (2 Bft) SO 225 0 min 0 W/m 15,7 C 23,7 C 9,0 km/h (2 Bft)
09/05/2012 18:00 23,8 C 60 % 1015,9 hPa 0,0 mm 6,8 km/h (2 Bft) SO 225 0 min 0 W/m 15,6 C 23,8 C 10,8 km/h (2 Bft)
09/05/2012 18:10 23,9 C 60 % 1015,8 hPa 0,0 mm 6,8 km/h (2 Bft) N 360 0 min 0 W/m 15,7 C 23,9 C 6,8 km/h (2 Bft)
09/05/2012 18:20 23,8 C 59 % 1015,8 hPa 0,0 mm 5,4 km/h (2 Bft) SO 225 0 min 0 W/m 15,3 C 23,8 C 9,7 km/h (2 Bft)
09/05/2012 18:30 23,7 C 61 % 1015,9 hPa 0,0 mm 3,6 km/h (1 Bft) SO 225 0 min 0 W/m 15,7 C 23,7 C 4,0 km/h (1 Bft)
09/05/2012 18:40 23,6 C 61 % 1016,0 hPa 0,0 mm 2,2 km/h (1 Bft) SO 225 0 min 0 W/m 15,6 C 23,6 C 6,1 km/h (2 Bft)
09/05/2012 18:50 23,5 C 61 % 1015,9 hPa 0,0 mm 0,4 km/h (0 Bft) S-SO 202 0 min 0 W/m 15,5 C 23,5 C 3,2 km/h (1 Bft)
09/05/2012 19:00 23,2 C 62 % 1015,9 hPa 0,0 mm 2,2 km/h (1 Bft) S 180 0 min 0 W/m 15,5 C 23,2 C 4,0 km/h (1 Bft)
09/05/2012 19:10 22,8 C 63 % 1015,9 hPa 0,0 mm 3,2 km/h (1 Bft) S-SO 202 0 min 0 W/m 15,4 C 22,8 C 3,2 km/h (1 Bft)
09/05/2012 19:20 22,6 C 64 % 1015,8 hPa 0,0 mm 0,0 km/h (0 Bft) SO 225 0 min 0 W/m 15,4 C 22,6 C 0,0 km/h (0 Bft)
09/05/2012 19:30 22,4 C 65 % 1015,8 hPa 0,0 mm 0,0 km/h (0 Bft) SO 225 0 min 0 W/m 15,5 C 22,4 C 0,0 km/h (0 Bft)
09/05/2012 19:40 22,3 C 65 % 1015,9 hPa 0,0 mm 0,0 km/h (0 Bft) SO 225 0 min 0 W/m 15,4 C 22,3 C 0,0 km/h (0 Bft)
09/05/2012 19:50 22,2 C 66 % 1015,8 hPa 0,0 mm 0,0 km/h (0 Bft) SO 225 0 min 0 W/m 15,5 C 22,2 C 0,0 km/h (0 Bft)
09/05/2012 20:00 22,0 C 66 % 1015,8 hPa 0,0 mm 0,0 km/h (0 Bft) S-SO 202 0 min 0 W/m 15,3 C 22,0 C 0,0 km/h (0 Bft)
09/05/2012 20:10 21,8 C 67 % 1015,9 hPa 0,0 mm 0,0 km/h (0 Bft) S-SO 202 0 min 0 W/m 15,4 C 21,8 C 0,0 km/h (0 Bft)
09/05/2012 20:20 21,5 C 68 % 1016,0 hPa 0,0 mm 0,0 km/h (0 Bft) S-SO 202 2 min 0 W/m 15,3 C 21,5 C 0,0 km/h (0 Bft)
09/05/2012 20:30 21,2 C 69 % 1016,0 hPa 0,0 mm 0,0 km/h (0 Bft) S-SO 202 2 min 0 W/m 15,3 C 21,2 C 0,0 km/h (0 Bft)
09/05/2012 20:40 20,9 C 70 % 1016,1 hPa 0,0 mm 0,0 km/h (0 Bft) S-SO 202 2 min 0 W/m 15,2 C 20,9 C 0,0 km/h (0 Bft)
09/05/2012 20:50 20,6 C 71 % 1016,1 hPa 0,0 mm 0,0 km/h (0 Bft) S-SO 202 2 min 0 W/m 15,2 C 20,6 C 0,0 km/h (0 Bft)
09/05/2012 21:00 20,3 C 71 % 1016,1 hPa 0,0 mm 0,0 km/h (0 Bft) S-SO 202 2 min 0 W/m 14,9 C 20,3 C 0,0 km/h (0 Bft)
09/05/2012 21:10 20,0 C 72 % 1016,1 hPa 0,0 mm 0,0 km/h (0 Bft) S-SO 202 0 min 0 W/m 14,8 C 20,0 C 0,0 km/h (0 Bft)
09/05/2012 21:20 19,8 C 73 % 1016,1 hPa 0,0 mm 0,0 km/h (0 Bft) S-SO 202 0 min 0 W/m 14,8 C 19,8 C 0,0 km/h (0 Bft)
09/05/2012 21:30 19,4 C 73 % 1016,1 hPa 0,0 mm 0,0 km/h (0 Bft) S-SO 202 0 min 0 W/m 14,4 C 19,4 C 0,0 km/h (0 Bft)
09/05/2012 21:40 19,1 C 74 % 1016,2 hPa 0,0 mm 0,0 km/h (0 Bft) S-SO 202 0 min 0 W/m 14,4 C 19,1 C 0,0 km/h (0 Bft)
09/05/2012 21:50 18,8 C 75 % 1016,2 hPa 0,0 mm 0,0 km/h (0 Bft) S 180 0 min 0 W/m 14,3 C 18,8 C 0,0 km/h (0 Bft)
09/05/2012 22:00 18,4 C 75 % 1016,3 hPa 0,0 mm 0,0 km/h (0 Bft) SE 135 0 min 0 W/m 13,9 C 18,4 C 0,0 km/h (0 Bft)
09/05/2012 22:10 18,2 C 76 % 1016,3 hPa 0,0 mm 0,0 km/h (0 Bft) SE 135 0 min 0 W/m 13,9 C 18,2 C 0,0 km/h (0 Bft)
09/05/2012 22:20 17,9 C 77 % 1016,2 hPa 0,0 mm 2,2 km/h (1 Bft) E 90 0 min 0 W/m 13,8 C 17,9 C 3,2 km/h (1 Bft)
09/05/2012 22:30 17,8 C 77 % 1016,3 hPa 0,0 mm 0,4 km/h (0 Bft) SE 135 0 min 0 W/m 13,7 C 17,8 C 3,2 km/h (1 Bft)
09/05/2012 22:40 17,7 C 77 % 1016,4 hPa 0,0 mm 0,7 km/h (0 Bft) SE 135 0 min 0 W/m 13,6 C 17,7 C 4,0 km/h (1 Bft)
09/05/2012 22:50 17,6 C 78 % 1016,2 hPa 0,0 mm 0,0 km/h (0 Bft) SE 135 0 min 0 W/m 13,7 C 17,6 C 0,0 km/h (0 Bft)
09/05/2012 23:00 17,5 C 78 % 1016,3 hPa 0,0 mm 0,0 km/h (0 Bft) E-SE 112 0 min 0 W/m 13,6 C 17,5 C 3,6 km/h (1 Bft)
09/05/2012 23:10 17,4 C 79 % 1016,3 hPa 0,0 mm 0,0 km/h (0 Bft) E-SE 112 0 min 0 W/m 13,7 C 17,4 C 0,0 km/h (0 Bft)
_ Min-Heure 07:50 18:20 02:10 - 23:10 - - - - 02:30 07:50 23:10
Minimum _ 14,8 C 59 % 1012,7 hPa - 0,0 km/h (0 Bft) - - - - 13,4 C 14,8 C 0,0 km/h (0 Bft)
_ Max-Heure 18:10 09:20 13:00 07:10 15:10 - - 21:00 23:10 16:10 18:10 15:50
Maximum _ 23,9 C 95 % 1016,7 hPa 0,6 mm 12,6 km/h
S (3 Bft)
- - 2 min 0 W/m 16,9 C 23,9 C 14,4 km/h
SO (3 Bft)
Moyenne _ 18,4 C 81 % 1015,0 hPa #2,9 mm 4,8 km/h (1 Bft) S-SO - #1:50 h 0 W/m 14,9 C 18,4 C 6,8 km/h (2 Bft)
Saint Bonnet de Bellac- Haute Vienne - France